SL-16 Debris - Orbit

View from above orbital plane
View from above orbital plane
View from above satellite
View from above satellite

Ground track
Ground track

The orbit data is extracted from the following two-line orbital elements,

1 26076U 99040E   13144.55197514  .00004499  00000-0  60660-3 0  2566
2 26076 028.4789 270.5305 4696047 251.1914 046.6993 06.14220977219223
Epoch (UTC): 24 May 2013 13:14:50
Eccentricity: 0.4696047
inclination: 28.4789°
perigee height: 302 km
apogee height: 12131 km
right ascension of ascending node: 270.5305°
argument of perigee: 251.1914°
revolutions per day: 6.14220977
mean anomaly at epoch: 46.6993°
orbit number at epoch: 21922

The dashed part of the orbit path shows where the satellite is in the earth's shadow,  

Developed and maintained by Chris Peat, Heavens-Above GmbH. Please read the updated FAQ before sending e-mail. Imprint. DLR